Location: Jefferson
(30.9666°N, 81.7901°W)
Time: 20:15:18
(UTC+00:00)

ACS3 Solar Sail - Pass Details

Date: 26 September 2024
Orbit: 960 x 1036 km, 97.4° (Epoch: 09 October)

Event Time Altitude Azimuth Distance (km) Brightness Sun altitude
Exits shadow 01:11:30 45° 66° (ENE) 1,388 2.2 -24.7°
Drops below altitude 10° 01:17:15 10° 3° (N) 2,840 4.3 -25.9°
Sets 01:19:52 0° 358° (N) 3,791 5.1 -26.5°
